FDX34 KMEM-EGSS

Flight info

Callsign FDX34
Flight time N/A
Altitude 31000
Route GOETZ7 DIYAB DCT HITMN Q34 RBV Q430 ACK DCT WHALE/N0490F330 N93B SUPRY/M084F330 DCT 46N050W 49N040W 50N030W 50N020W DCT BEDRA DCT NASBA DCT GAPLI/N0485F330 DCT SIDDI DCT DAWLY DCT ELRIP DCT OTMET N17 TELTU
Aircraft MD11/H-SDE1E2E3FGHIJ2J3J4J5M1RWXY/LB1D1

Departure

Time 2026-05-04 20:48
Airport Memphis International Airport (KMEM)

Arrival

Time N/A
Airport London Stansted Airport (EGSS)
Time Latitude Longitude Altitude Speed Heading
2026-05-04 20:32 35.06100 -89.96174 338 ft 0 kts
2026-05-04 20:34 35.06085 -89.96175 335 ft 4 kts
2026-05-04 20:34 35.06060 -89.96177 334 ft 4 kts 352°
2026-05-04 20:34 35.06042 -89.96171 333 ft 4 kts 304°
2026-05-04 20:34 35.06036 -89.96147 333 ft 4 kts 265°
2026-05-04 20:35 35.06038 -89.96115 333 ft 4 kts 270°
2026-05-04 20:35 35.06038 -89.96108 334 ft 0 kts 272°
2026-05-04 20:39 35.06038 -89.96109 334 ft 1 kts 272°
2026-05-04 20:39 35.06039 -89.96133 333 ft 5 kts 272°
2026-05-04 20:40 35.06041 -89.96172 333 ft 4 kts 273°
2026-05-04 20:40 35.06043 -89.96215 336 ft 8 kts 272°
2026-05-04 20:40 35.06044 -89.96302 338 ft 11 kts 272°
2026-05-04 20:40 35.06047 -89.96386 338 ft 9 kts 272°
2026-05-04 20:41 35.06043 -89.96453 338 ft 7 kts 252°
2026-05-04 20:41 35.06020 -89.96488 335 ft 4 kts 223°
2026-05-04 20:41 35.06000 -89.96509 335 ft 4 kts 218°
2026-05-04 20:41 35.05971 -89.96535 334 ft 6 kts 215°
2026-05-04 20:42 35.05934 -89.96574 335 ft 8 kts 233°
2026-05-04 20:42 35.05921 -89.96645 334 ft 11 kts 268°
2026-05-04 20:42 35.05921 -89.96735 334 ft 10 kts 271°
2026-05-04 20:42 35.05924 -89.96821 336 ft 11 kts 272°
2026-05-04 20:43 35.05927 -89.96932 338 ft 15 kts 272°
2026-05-04 20:43 35.05930 -89.97056 338 ft 14 kts 272°
2026-05-04 20:43 35.05921 -89.97155 333 ft 9 kts 239°
2026-05-04 20:43 35.05877 -89.97185 332 ft 7 kts 191°
2026-05-04 20:44 35.05831 -89.97189 334 ft 7 kts 182°
2026-05-04 20:44 35.05782 -89.97191 335 ft 7 kts 181°
2026-05-04 20:44 35.05727 -89.97193 335 ft 8 kts 182°
2026-05-04 20:44 35.05668 -89.97210 335 ft 9 kts 207°
2026-05-04 20:45 35.05626 -89.97261 333 ft 9 kts 232°
2026-05-04 20:45 35.05590 -89.97321 334 ft 9 kts 234°
2026-05-04 20:45 35.05555 -89.97384 332 ft 9 kts 236°
2026-05-04 20:45 35.05526 -89.97436 333 ft 7 kts 236°
2026-05-04 20:46 35.05502 -89.97479 334 ft 6 kts 234°
2026-05-04 20:46 35.05476 -89.97521 333 ft 7 kts 232°
2026-05-04 20:46 35.05443 -89.97582 329 ft 10 kts 232°
2026-05-04 20:46 35.05391 -89.97614 330 ft 8 kts 188°
2026-05-04 20:47 35.05266 -89.97615 329 ft 36 kts 179°
2026-05-04 20:47 35.04769 -89.97602 324 ft 105 kts 179°
2026-05-04 20:47 35.03852 -89.97587 329 ft 157 kts 179°
2026-05-04 20:47 35.02675 -89.97546 535 ft 172 kts 179°
2026-05-04 20:48 35.01472 -89.97456 1077 ft 177 kts 180°
2026-05-04 20:48 35.00221 -89.97388 1585 ft 178 kts 181°
2026-05-04 20:48 34.98980 -89.97287 2186 ft 177 kts 173°
2026-05-04 20:48 34.97761 -89.96841 2619 ft 186 kts 165°
2026-05-04 20:49 34.96550 -89.96293 3102 ft 187 kts 164°
2026-05-04 20:49 34.95329 -89.95686 3497 ft 193 kts 159°
2026-05-04 20:49 34.94167 -89.94705 3640 ft 217 kts 140°
2026-05-04 20:49 34.93265 -89.93102 3808 ft 244 kts 117°
2026-05-04 20:50 34.92875 -89.91001 4121 ft 263 kts 101°
2026-05-04 20:50 34.92729 -89.88728 4269 ft 275 kts 98°
2026-05-04 20:50 34.92627 -89.86352 4374 ft 286 kts 96°
2026-05-04 20:50 34.92841 -89.83868 4482 ft 310 kts 75°
2026-05-04 20:51 34.93727 -89.81405 4865 ft 323 kts 64°
2026-05-04 20:51 34.94845 -89.79018 5540 ft 326 kts 61°
2026-05-04 20:51 34.96016 -89.76637 6199 ft 330 kts 61°
2026-05-04 20:51 34.97196 -89.74225 6868 ft 334 kts 61°
2026-05-04 20:52 34.98376 -89.71773 7485 ft 337 kts 61°
2026-05-04 20:52 34.99556 -89.69294 8165 ft 339 kts 61°
2026-05-04 20:52 35.00746 -89.66775 8728 ft 345 kts 61°
2026-05-04 20:52 35.01941 -89.64234 9300 ft 348 kts 61°
2026-05-04 20:53 35.03136 -89.61688 9845 ft 352 kts 60°
2026-05-04 20:53 35.04356 -89.59084 10276 ft 359 kts 60°
2026-05-04 20:53 35.05625 -89.56368 10376 ft 377 kts 60°
2026-05-04 20:53 35.06944 -89.53544 10679 ft 386 kts 60°
2026-05-04 20:54 35.08277 -89.50687 11197 ft 389 kts 61°
2026-05-04 20:54 35.09624 -89.47797 11740 ft 393 kts 61°
2026-05-04 20:54 35.10980 -89.44885 12265 ft 396 kts 61°
2026-05-04 20:54 35.12343 -89.41957 12809 ft 398 kts 61°
2026-05-04 20:55 35.13718 -89.39000 13328 ft 401 kts 61°
2026-05-04 20:55 35.15101 -89.36022 13863 ft 405 kts 61°
2026-05-04 20:55 35.16493 -89.33023 14511 ft 407 kts 60°
2026-05-04 20:55 35.17893 -89.30003 14974 ft 410 kts 60°
2026-05-04 20:56 35.19303 -89.26960 15443 ft 412 kts 60°
2026-05-04 20:56 35.20719 -89.23900 15889 ft 414 kts 60°
2026-05-04 20:56 35.21974 -89.20706 16309 ft 418 kts 68°
2026-05-04 20:56 35.22969 -89.17353 16737 ft 421 kts 72°
2026-05-04 20:57 35.23937 -89.13963 17153 ft 424 kts 68°
2026-05-04 20:57 35.25057 -89.10605 17569 ft 427 kts 66°
2026-05-04 20:57 35.26266 -89.07279 17972 ft 430 kts 64°
2026-05-04 20:57 35.27525 -89.03939 18363 ft 433 kts 64°
2026-05-04 20:58 35.28801 -89.00593 18776 ft 435 kts 64°
2026-05-04 20:58 35.30083 -88.97232 19191 ft 437 kts 63°
2026-05-04 20:58 35.30933 -88.94997 19463 ft 438 kts 63°
2026-05-04 20:58 35.32217 -88.91612 19866 ft 440 kts 63°
2026-05-04 20:59 35.33506 -88.88200 20273 ft 442 kts 63°
2026-05-04 20:59 35.34799 -88.84768 20652 ft 445 kts 63°
2026-05-04 20:59 35.36096 -88.81319 21004 ft 448 kts 63°
2026-05-04 20:59 35.37400 -88.77847 21390 ft 449 kts 63°
2026-05-04 21:00 35.38701 -88.74377 21853 ft 450 kts 63°
2026-05-04 21:00 35.40011 -88.70880 22134 ft 453 kts 63°
2026-05-04 21:00 35.41332 -88.67351 22505 ft 456 kts 63°
2026-05-04 21:00 35.42657 -88.63807 22882 ft 458 kts 63°
2026-05-04 21:01 35.43969 -88.60294 23231 ft 460 kts 62°
2026-05-04 21:01 35.45299 -88.56728 23597 ft 461 kts 62°
2026-05-04 21:01 35.46637 -88.53139 23891 ft 463 kts 62°
2026-05-04 21:01 35.47978 -88.49534 24181 ft 465 kts 62°
2026-05-04 21:02 35.49324 -88.45914 24491 ft 468 kts 63°
2026-05-04 21:02 35.50678 -88.42269 24763 ft 470 kts 63°
2026-05-04 21:02 35.52037 -88.38603 25079 ft 472 kts 63°
2026-05-04 21:02 35.53401 -88.34923 25373 ft 474 kts 63°
2026-05-04 21:03 35.54767 -88.31232 25683 ft 476 kts 63°
2026-05-04 21:03 35.56138 -88.27521 25980 ft 478 kts 63°
2026-05-04 21:03 35.57515 -88.23790 26280 ft 480 kts 63°
2026-05-04 21:03 35.58888 -88.20041 26545 ft 482 kts 63°
2026-05-04 21:04 35.60258 -88.16280 26820 ft 483 kts 63°
2026-05-04 21:04 35.61633 -88.12506 27083 ft 485 kts 63°
2026-05-04 21:04 35.63018 -88.08714 27172 ft 487 kts 63°
2026-05-04 21:04 35.64412 -88.04907 27385 ft 490 kts 63°
2026-05-04 21:05 35.65813 -88.01080 27647 ft 491 kts 63°
2026-05-04 21:05 35.67220 -87.97238 27907 ft 493 kts 63°
2026-05-04 21:05 35.68629 -87.93384 28153 ft 495 kts 63°
2026-05-04 21:05 35.70041 -87.89520 28395 ft 497 kts 63°
2026-05-04 21:06 35.71458 -87.85636 28657 ft 498 kts 63°
2026-05-04 21:06 35.72880 -87.81732 28884 ft 500 kts 63°
2026-05-04 21:06 35.74304 -87.77819 29125 ft 502 kts 63°
2026-05-04 21:06 35.75731 -87.73890 29352 ft 504 kts 63°
2026-05-04 21:07 35.77146 -87.69992 29573 ft 505 kts 63°
2026-05-04 21:07 35.78581 -87.66033 29770 ft 508 kts 63°
2026-05-04 21:07 35.80022 -87.62054 29975 ft 510 kts 63°
2026-05-04 21:07 35.81465 -87.58063 30184 ft 511 kts 63°
2026-05-04 21:08 35.82911 -87.54057 30407 ft 512 kts 63°
2026-05-04 21:08 35.84361 -87.50036 30592 ft 514 kts 63°
2026-05-04 21:08 35.85810 -87.46011 30775 ft 515 kts 63°
2026-05-04 21:08 35.87264 -87.41967 30971 ft 516 kts 63°
2026-05-04 21:09 35.90179 -87.33850 31030 ft 521 kts 63°
2026-05-04 21:09 35.93102 -87.25648 31028 ft 521 kts 64°
2026-05-04 21:10 35.96001 -87.17448 31052 ft 521 kts 64°
2026-05-04 21:10 35.98909 -87.09252 31089 ft 521 kts 64°
2026-05-04 21:11 36.01819 -87.01060 31123 ft 521 kts 64°
2026-05-04 21:11 36.04723 -86.92864 31150 ft 521 kts 64°
2026-05-04 21:12 36.07630 -86.84638 31168 ft 522 kts 64°
2026-05-04 21:12 36.10527 -86.76417 31197 ft 522 kts 64°
2026-05-04 21:13 36.13418 -86.68187 31198 ft 522 kts 64°
2026-05-04 21:13 36.16289 -86.59996 31198 ft 522 kts 64°
2026-05-04 21:14 36.19169 -86.51755 31172 ft 522 kts 64°
2026-05-04 21:14 36.22010 -86.43468 31178 ft 523 kts 65°
2026-05-04 21:15 36.24699 -86.35096 31182 ft 524 kts 66°
2026-05-04 21:15 36.27357 -86.26714 31176 ft 524 kts 66°
2026-05-04 21:16 36.28695 -86.22509 31069 ft 524 kts 66°
2026-05-04 21:16 36.30033 -86.18310 31134 ft 524 kts 66°
2026-05-04 21:16 36.32725 -86.09872 31066 ft 528 kts 65°
2026-05-04 21:17 36.35422 -86.01395 31062 ft 528 kts 65°
2026-05-04 21:17 36.38108 -85.92923 31062 ft 528 kts 65°
2026-05-04 21:18 36.40792 -85.84434 31061 ft 529 kts 65°
2026-05-04 21:18 36.43470 -85.75935 31080 ft 529 kts 65°
2026-05-04 21:19 36.46151 -85.67406 31062 ft 530 kts 65°
2026-05-04 21:19 36.48823 -85.58876 31056 ft 530 kts 65°
2026-05-04 21:20 36.51487 -85.50345 31061 ft 530 kts 65°
2026-05-04 21:20 36.54122 -85.41788 31068 ft 530 kts 65°
2026-05-04 21:21 36.56765 -85.33221 31065 ft 531 kts 65°
2026-05-04 21:21 36.59401 -85.24694 31071 ft 531 kts 65°
2026-05-04 21:22 36.62048 -85.16120 31151 ft 529 kts 66°
2026-05-04 21:22 36.64687 -85.07547 31087 ft 530 kts 65°
2026-05-04 21:23 36.67336 -84.98942 31041 ft 533 kts 65°
2026-05-04 21:23 36.69990 -84.90304 31032 ft 534 kts 65°
2026-05-04 21:24 36.72641 -84.81644 31026 ft 534 kts 65°
2026-05-04 21:24 36.75283 -84.72991 31024 ft 534 kts 65°
2026-05-04 21:25 36.77903 -84.64382 31038 ft 535 kts 65°
2026-05-04 21:25 36.80538 -84.55682 31047 ft 537 kts 66°
2026-05-04 21:26 36.83154 -84.46964 31027 ft 536 kts 66°
2026-05-04 21:26 36.85778 -84.38233 31036 ft 537 kts 66°
2026-05-04 21:27 36.88391 -84.29538 31177 ft 533 kts 67°
2026-05-04 21:27 36.89695 -84.25192 31040 ft 535 kts 65°
2026-05-04 21:27 36.90999 -84.20835 31017 ft 537 kts 66°
2026-05-04 21:28 36.93621 -84.12063 31018 ft 540 kts 66°
2026-05-04 21:28 36.96233 -84.03269 31009 ft 539 kts 66°
2026-05-04 21:29 36.98829 -83.94465 31008 ft 539 kts 66°
2026-05-04 21:29 37.01428 -83.85658 31028 ft 540 kts 66°
2026-05-04 21:30 37.04034 -83.76822 31040 ft 542 kts 66°
2026-05-04 21:30 37.06619 -83.68029 31061 ft 542 kts 66°
2026-05-04 21:31 37.10514 -83.54726 31077 ft 542 kts 66°
2026-05-04 21:32 37.13108 -83.45832 31079 ft 544 kts 66°
2026-05-04 21:32 37.15697 -83.36925 31079 ft 544 kts 66°
2026-05-04 21:33 37.18283 -83.27994 31087 ft 544 kts 66°
2026-05-04 21:33 37.20859 -83.19071 31082 ft 544 kts 66°
2026-05-04 21:34 37.23432 -83.10130 31083 ft 545 kts 66°
2026-05-04 21:34 37.25981 -83.01154 31082 ft 546 kts 66°
2026-05-04 21:35 37.28526 -82.92163 31066 ft 546 kts 66°
2026-05-04 21:35 37.31078 -82.83184 31070 ft 546 kts 66°
2026-05-04 21:36 37.33633 -82.74193 31056 ft 547 kts 66°
2026-05-04 21:36 37.36185 -82.65180 31043 ft 548 kts 66°
2026-05-04 21:37 37.38712 -82.56221 31035 ft 548 kts 66°
2026-05-04 21:37 37.41250 -82.47193 31081 ft 549 kts 66°
2026-05-04 21:38 37.43781 -82.38156 31045 ft 544 kts 68°
2026-05-04 21:38 37.45024 -82.33703 31116 ft 532 kts 68°
2026-05-04 21:38 37.46234 -82.29350 31123 ft 522 kts 68°
2026-05-04 21:39 37.48626 -82.20760 31135 ft 522 kts 68°
2026-05-04 21:39 37.51020 -82.12113 31131 ft 523 kts 68°
2026-05-04 21:40 37.53386 -82.03457 31130 ft 523 kts 68°
2026-05-04 21:40 37.55745 -81.94853 31132 ft 522 kts 68°
2026-05-04 21:41 37.58120 -81.86207 31131 ft 522 kts 68°
2026-05-04 21:41 37.60487 -81.77538 31135 ft 522 kts 68°
2026-05-04 21:42 37.62832 -81.68874 31140 ft 522 kts 69°
2026-05-04 21:42 37.65176 -81.60201 31140 ft 522 kts 68°
2026-05-04 21:43 37.67514 -81.51533 31127 ft 521 kts 68°
2026-05-04 21:43 37.69841 -81.42883 31103 ft 521 kts 68°
2026-05-04 21:44 37.72168 -81.34205 31092 ft 522 kts 68°
2026-05-04 21:44 37.74492 -81.25507 31058 ft 522 kts 68°
2026-05-04 21:45 37.76797 -81.16847 31049 ft 522 kts 69°
2026-05-04 21:45 37.78568 -81.07941 31050 ft 525 kts 80°
2026-05-04 21:46 37.79207 -80.98731 31057 ft 527 kts 85°
2026-05-04 21:46 37.79659 -80.89482 31087 ft 527 kts 84°
2026-05-04 21:47 37.80108 -80.81789 31102 ft 527 kts 83°
2026-05-04 21:47 37.80803 -80.71062 31129 ft 526 kts 83°
2026-05-04 21:48 37.81407 -80.61839 31090 ft 526 kts 83°
2026-05-04 21:48 37.81904 -80.54108 31077 ft 526 kts 83°
2026-05-04 21:49 37.82478 -80.44944 31068 ft 526 kts 84°
2026-05-04 21:49 37.83036 -80.35715 31067 ft 526 kts 84°
2026-05-04 21:50 37.83598 -80.26480 31073 ft 526 kts 84°
2026-05-04 21:50 37.84160 -80.17257 31087 ft 526 kts 84°
2026-05-04 21:51 37.84718 -80.08024 31096 ft 526 kts 84°
2026-05-04 21:51 37.85267 -79.98796 31077 ft 526 kts 84°
2026-05-04 21:52 37.85809 -79.89559 31072 ft 526 kts 84°
2026-05-04 21:52 37.86343 -79.80330 31071 ft 526 kts 84°
2026-05-04 21:53 37.86818 -79.71107 31077 ft 525 kts 85°
2026-05-04 21:53 37.87135 -79.61865 31013 ft 526 kts 86°
2026-05-04 21:54 37.87426 -79.52621 31003 ft 526 kts 85°
2026-05-04 21:54 37.87726 -79.43388 31003 ft 525 kts 85°